Hagerstown, MD

5:52 AM EST on December 17, 2017 (GMT -0500)
Hagerstown Regional-Henson

Weather History for KHGR - April, 2014

Change the Weather History Date:

Wednesday, April 30, 2014

  Actual Average Record
Temperature  
Mean Temperature 50 °F 57 °F  
Max Temperature 53 °F 68 °F 83 °F (2017)
Min Temperature 46 °F 47 °F 36 °F (2006)
Degree Days  
Heating Degree Days 15 8  
Month to date heating degree days 391 381  
Since 1 July heating degree days 5265 5014  
Cooling Degree Days 0 1  
Month to date cooling degree days 10 14  
Year to date cooling degree days 10 15  
Moisture  
Dew Point 47 °F    
Average Humidity 91    
Maximum Humidity 96    
Minimum Humidity 86    
Precipitation  
Precipitation 0.45 in 0.11 in 0.45 in (2014)
Month to date precipitation 2.55 3.56  
Year to date precipitation 8.00 12.17  
Sea Level Pressure  
Sea Level Pressure 30.02 in    
Wind  
Wind Speed 9 mph (North)    
Max Wind Speed 20 mph    
Max Gust Speed 22 mph    
Visibility 5 miles    
Events Rain , Thunderstorm    
T = Trace of Precipitation, MM = Missing Value Source: NWS Daily Summary

Daily Weather History Graph

Daily Weather History Graph

Search for Another Location

Airport or City:

Trip Planner

Search our weather history database for the weather conditions in past years. The results will help you decide how hot, cold, wet, or windy it might be!

Date:

Astronomy

Apr. 30, 2014 Rise Set
Actual Time 6:12 AM EDT 8:04 PM EDT
Civil Twilight 5:43 AM EDT 8:33 PM EDT
Nautical Twilight 5:08 AM EDT 9:08 PM EDT
Astronomical Twilight 4:30 AM EDT 9:46 PM EDT
Moon 7:12 AM EDT (4/30) 9:40 PM EDT (4/30)
Length of Visible Light 14h 49m
Length of Day
13h 51m
New Moon, 2% of the Moon is Illuminated
Apr 30
New Moon
May 6
First Quarter
May 14
Full
May 21
Last Quarter
May 28
New

Hourly Weather History & Observations

Time (EDT) Temp. Windchill Dew Point Humidity Pressure Visibility Wind Dir Wind Speed Gust Speed Precip Events Conditions
12:53 AM 46.9 °F - 44.1 °F 90% 30.21 in 10.0 mi NE 9.2 mph - N/A   Overcast
1:53 AM 46.0 °F 41.0 °F 43.0 °F 89% 30.21 in 10.0 mi ENE 10.4 mph - N/A   Overcast
2:53 AM 46.0 °F 40.6 °F 43.0 °F 89% 30.18 in 10.0 mi NE 11.5 mph - 0.02 in   Overcast
3:31 AM 46.0 °F 39.9 °F 43.0 °F 89% 30.12 in 5.0 mi East 13.8 mph - 0.04 in Rain , Thunderstorm Thunderstorms and Rain
3:40 AM 46.0 °F 41.0 °F 43.0 °F 89% 30.13 in 10.0 mi ENE 10.4 mph - 0.04 in Rain Light Rain
3:53 AM 46.0 °F 41.4 °F 43.0 °F 89% 30.18 in 10.0 mi ENE 9.2 mph - 0.04 in   Overcast
4:53 AM 46.0 °F 41.4 °F 43.0 °F 89% 30.16 in 10.0 mi NE 9.2 mph - 0.01 in   Overcast
5:53 AM 46.0 °F 41.9 °F 43.0 °F 89% 30.17 in 9.0 mi NE 8.1 mph - 0.00 in Rain Light Rain
6:53 AM 46.9 °F - 44.1 °F 90% 30.16 in 5.0 mi NE 12.7 mph - 0.02 in Rain Light Rain
7:11 AM 46.0 °F 40.6 °F 44.1 °F 93% 30.12 in 1.8 mi NE 11.5 mph - 0.05 in Rain Rain
7:19 AM 46.0 °F 41.4 °F 44.1 °F 93% 30.12 in 3.0 mi NE 9.2 mph - 0.06 in Rain Light Rain
7:53 AM 46.0 °F 41.0 °F 44.1 °F 93% 30.15 in 4.0 mi NE 10.4 mph - 0.14 in Rain Rain
8:10 AM 46.0 °F 42.5 °F 44.1 °F 93% 30.12 in 2.0 mi NE 6.9 mph - 0.06 in Rain Rain
8:30 AM 46.0 °F 41.4 °F 44.1 °F 93% 30.10 in 8.0 mi NNE 9.2 mph - 0.09 in Rain Light Rain
8:53 AM 46.9 °F - 44.1 °F 90% 30.14 in 10.0 mi NE 9.2 mph - 0.09 in   Overcast
9:46 AM 48.0 °F - 45.0 °F 89% 30.07 in 10.0 mi NE 10.4 mph - 0.01 in Rain Light Rain
9:53 AM 48.0 °F - 45.0 °F 89% 30.11 in 10.0 mi ENE 10.4 mph - 0.01 in Rain Light Rain
10:37 AM 48.9 °F - 46.0 °F 90% 30.07 in 7.0 mi NNE 8.1 mph - 0.00 in Rain Light Rain
11:53 AM 48.9 °F - 46.9 °F 93% 30.08 in 3.0 mi NNE 9.2 mph - 0.04 in Rain Rain
12:21 PM 50.0 °F - 46.9 °F 89% 30.02 in 5.0 mi NE 8.1 mph - 0.08 in Rain Rain
12:34 PM 50.0 °F - 48.0 °F 93% 30.01 in 10.0 mi NE 8.1 mph - 0.08 in   Overcast
12:53 PM 51.1 °F - 48.9 °F 92% 30.05 in 10.0 mi North 8.1 mph - 0.08 in   Overcast
1:34 PM 52.0 °F - 48.9 °F 89% 30.00 in 10.0 mi NE 9.2 mph - N/A   Overcast
1:53 PM 52.0 °F - 50.0 °F 93% 30.03 in 10.0 mi NNW 6.9 mph - N/A   Overcast
2:20 PM 50.0 °F - 48.9 °F 96% 29.98 in 7.0 mi NNW 9.2 mph - N/A   Overcast
2:49 PM 50.0 °F - 48.2 °F 94% 29.98 in 2.0 mi NNW 9.2 mph - N/A   Overcast
2:53 PM 50.0 °F - 48.0 °F 93% 30.02 in 1.8 mi NNW 8.1 mph - N/A   Overcast
3:02 PM 50.0 °F - 48.9 °F 96% 29.97 in 2.0 mi NNW 6.9 mph - N/A   Overcast
3:53 PM 50.0 °F - 48.9 °F 96% 30.01 in 2.0 mi NNW 8.1 mph - N/A   Overcast
4:53 PM 51.1 °F - 50.0 °F 96% 29.97 in 2.0 mi North 9.2 mph - N/A   Overcast
5:24 PM 52.0 °F - 50.0 °F 93% 29.92 in 3.0 mi North 10.4 mph - N/A   Overcast
5:40 PM 52.0 °F - 51.1 °F 97% 29.91 in 3.0 mi NNW 9.2 mph - N/A   Overcast
5:53 PM 52.0 °F - 50.0 °F 93% 29.95 in 2.5 mi NNW 10.4 mph - N/A   Overcast
6:53 PM 52.0 °F - 51.1 °F 97% 29.94 in 2.0 mi North 5.8 mph - N/A   Overcast
7:12 PM 52.0 °F - 51.1 °F 97% 29.88 in 1.8 mi North 4.6 mph - N/A   Overcast
7:49 PM 51.8 °F - 51.8 °F 100% 29.88 in 1.0 mi NNW 5.8 mph - N/A   Overcast
7:53 PM 52.0 °F - 51.1 °F 97% 29.91 in 1.0 mi NNW 8.1 mph - N/A   Overcast
8:34 PM 52.0 °F - 51.1 °F 97% 29.87 in 1.8 mi NNW 6.9 mph - N/A   Overcast
8:45 PM 51.1 °F - 51.1 °F 100% 29.86 in 1.5 mi NNW 6.9 mph - N/A   Overcast
8:53 PM 51.1 °F - 51.1 °F 100% 29.90 in 1.5 mi NNW 8.1 mph - N/A   Overcast
9:11 PM 51.1 °F - 51.1 °F 100% 29.86 in 2.0 mi NNW 5.8 mph - N/A   Overcast
9:53 PM 51.1 °F - 50.0 °F 96% 29.90 in 2.5 mi NW 8.1 mph - N/A   Overcast
10:06 PM 51.1 °F - 50.0 °F 96% 29.85 in 1.8 mi NW 8.1 mph - N/A   Overcast
10:53 PM 50.0 °F - 50.0 °F 100% 29.88 in 1.5 mi NW 5.8 mph - 0.00 in   Overcast
11:42 PM 50.0 °F - 50.0 °F 100% 29.85 in 0.8 mi WNW 4.6 mph - N/A   Mist
11:53 PM 50.0 °F - 50.0 °F 100% 29.89 in 0.8 mi West 6.9 mph - N/A   Mist